Weather in Murygino

Russia / Smolensk Oblast     54°29′21″N   32°18′48″E
temp.,
°C
wind,
m/s
gust,
m/s
humid.,
%
clouds,
%
prec.,
mm/h
press.,
hPa
HPBL,
m
7 may, fri
fri700:00+3sw410895 0.1 1009228
03:00+2sw38890 0.1 1010154
06:00+2ssw498932 0.0 1010184
09:00+7ssw6107197 0.1 1010617
12:00+11sw8106289 0.6 10101624
15:00+13ssw71056100 1.6 10091813
18:00+11ssw81167100 0.7 10081187
21:00+8sse51293100 2.3 1007827
8 may, sat
sat800:00+7se61195100 1.2 1005580
03:00+8ssw3798100 1.3 1004363
06:00+7w2397100 0.1 100399
09:00+9nnw3484100 0.1 1002530
12:00+10nw6779100 0.5 10021106
15:00+7nw71088100 1.8 1005893
18:00+7nw81282100 0.5 10061034
21:00+5nw71378100 0.6 1010774
9 may, sun
sun900:00+3wnw5138394 0.0 1012442
03:00+1wnw512885 0.0 1015344
06:00+1nw512905 0.0 1018362
09:00+6nw69675 0.0 10201035
12:00+9nw68485 0.0 10221887
15:00+11nw674391 0.0 10232298
18:00+11wnw455325 0.0 10241653
21:00+6w226427 0.0 102614
10 may, mon
mon1000:00+5sw336541 0.0 102721
03:00+4sw34696 0.0 102947
06:00+4ssw36745 0.0 1030104
09:00+10ssw46635 0.0 1030396
12:00+14sw455322 0.0 10301192
15:00+15sw33502 0.0 10291367
18:00+15ssw22530 0.0 10291108
21:00+10sse22700 0.0 103011
11 may, tue
tue1100:00+8sse22761 0.0 103018
03:00+7sse227856 0.0 103013
06:00+7sse22815 0.0 103127
09:00+13se236511 0.0 1030368
12:00+17se345525 0.0 10291048
15:00+18ese345124 0.0 10281361
18:00+18ese346298 0.0 10271111
21:00+12ese498188 0.0 1027147